GW5555 Weather Reports


time (UTC)temp
C
wind
direction
speed
KPH
gust
KPH
rain 1hr
cm
rain 24hr
cm
rain mn
cm
humidity
%
barometer
mb
20260503032849 12 271 11.3 12.9 0.00 0.00 0.00 51 1012.4
20260503032348 12 237 9.7 11.3 0.00 0.00 0.00 51 1012.3
20260503031845 12 270 9.7 11.3 0.00 0.00 0.00 49 1012.0
20260503031343 13 336 3.2 3.2 0.00 0.00 0.00 51 1012.1
20260503030839 13 16 3.2 3.2 0.00 0.00 0.00 51 1011.8
20260503030336 13 3 1.6 1.6 0.00 0.00 0.00 49 1012.1
20260503025832 13 352 3.2 3.2 0.00 0.00 0.00 49 1012.0
20260503025330 13 318 3.2 4.8 0.00 0.00 0.00 47 1011.9
20260503024827 13 88 1.6 1.6 0.00 0.00 0.00 48 1012.0
20260503024323 13 63 1.6 3.2 0.00 0.00 0.00 48 1011.8
20260503023820 13 101 0.0 0.0 0.00 0.00 0.00 47 1011.7
20260503023318 13 91 0.0 0.0 0.00 0.00 0.00 47 1011.9
20260503022814 13 81 1.6 1.6 0.00 0.00 0.00 47 1011.7
20260503022314 14 115 1.6 1.6 0.00 0.00 0.00 46 1011.6
20260503021811 14 122 1.6 1.6 0.00 0.00 0.00 46 1011.7
20260503021307 14 120 1.6 1.6 0.00 0.00 0.00 46 1011.7
20260503020805 15 105 1.6 1.6 0.00 0.00 0.00 45 1011.8
20260503020302 15 98 3.2 3.2 0.00 0.00 0.00 45 1011.5
20260503015758 15 74 6.4 6.4 0.00 0.00 0.00 44 1011.5
20260503015256 15 99 1.6 1.6 0.00 0.00 0.00 44 1011.4
20260503014751 15 98 1.6 1.6 0.00 0.00 0.00 42 1011.5
20260503014249 16 99 0.0 1.6 0.00 0.00 0.00 41 1011.5
20260503013746 16 99 0.0 0.0 0.00 0.00 0.00 41 1011.5
20260503013244 16 71 1.6 1.6 0.00 0.00 0.00 41 1011.7
20260503012741 16 102 0.0 0.0 0.00 0.00 0.00 41 1011.7
20260503012238 16 102 0.0 0.0 0.00 0.00 0.00 40 1011.6
20260503011734 16 86 3.2 3.2 0.00 0.00 0.00 40 1011.6
20260503011232 16 52 0.0 0.0 0.00 0.00 0.00 40 1011.7
20260503010727 17 22 6.4 6.4 0.00 0.00 0.00 39 1011.9
20260503010225 16 294 1.6 1.6 0.00 0.00 0.00 39 1011.8
20260503005722 17 20 3.2 4.8 0.00 0.00 0.00 39 1011.9
20260503005220 17 8 3.2 3.2 0.00 0.00 0.00 40 1012.0
20260503004715 17 322 3.2 3.2 0.00 0.00 0.00 39 1011.7
20260503004214 16 329 0.0 1.6 0.00 0.00 0.00 40 1011.8
20260503003711 16 218 1.6 3.2 0.00 0.00 0.00 41 1011.7
20260503003208 16 157 0.0 0.0 0.00 0.00 0.00 41 1012.3
20260503002704 16 318 4.8 6.4 0.00 0.00 0.00 40 1012.0
20260503002201 16 277 4.8 4.8 0.00 0.00 0.00 40 1012.1
20260503001657 16 284 4.8 4.8 0.00 0.00 0.00 40 1012.4
20260503001154 16 236 1.6 1.6 0.00 0.00 0.00 41 1012.3
20260503000652 16 342 8.0 9.7 0.00 0.00 0.00 40 1012.1
20260503000149 16 284 9.7 11.3 0.00 0.00 0.00 40 1012.1
20260502235645 16 332 6.4 6.4 0.00 0.00 0.00 40 1012.3
20260502235144 16 351 4.8 6.4 0.00 0.00 0.00 40 1012.4
20260502234639 16 283 3.2 3.2 0.00 0.00 0.00 40 1012.3
20260502234137 16 254 4.8 4.8 0.00 0.00 0.00 40 1012.6
20260502233632 16 239 8.0 9.7 0.00 0.00 0.00 40 1012.5
20260502233129 16 264 8.0 9.7 0.00 0.00 0.00 40 1012.5
20260502232625 17 283 9.7 12.9 0.00 0.00 0.00 39 1012.7
20260502232123 16 58 3.2 3.2 0.00 0.00 0.00 41 1012.6
20260502231619 16 23 6.4 6.4 0.00 0.00 0.00 41 1012.9
20260502231118 16 272 3.2 4.8 0.00 0.00 0.00 40 1012.8
20260502230616 17 261 8.0 11.3 0.00 0.00 0.00 39 1012.6
20260502230114 17 276 8.0 9.7 0.00 0.00 0.00 39 1012.6
20260502225609 18 53 4.8 4.8 0.00 0.00 0.00 38 1012.7
20260502225106 17 129 1.6 1.6 0.00 0.00 0.00 40 1012.9
20260502224602 17 40 1.6 3.2 0.00 0.00 0.00 39 1012.9
20260502224059 17 279 4.8 4.8 0.00 0.00 0.00 39 1013.2
20260502223557 17 295 11.3 12.9 0.00 0.00 0.00 39 1013.2
20260502223055 17 175 1.6 3.2 0.00 0.00 0.00 41 1013.2
20260502222552 17 285 9.7 12.9 0.00 0.00 0.00 41 1013.4
20260502222048 17 292 6.4 6.4 0.00 0.00 0.00 40 1013.5
20260502221544 17 350 6.4 6.4 0.00 0.00 0.00 39 1013.7
20260502221042 17 54 3.2 4.8 0.00 0.00 0.00 41 1013.5
20260502220537 17 324 8.0 11.3 0.00 0.00 0.00 39 1013.8
20260502220034 17 175 0.0 0.0 0.00 0.00 0.00 40 1013.6
20260502215532 16 18 3.2 4.8 0.00 0.00 0.00 42 1013.5
20260502215028 16 348 4.8 6.4 0.00 0.00 0.00 43 1013.8
20260502214525 16 292 8.0 9.7 0.00 0.00 0.00 42 1013.8
20260502214023 17 321 14.5 16.1 0.00 0.00 0.00 41 1014.1
20260502213519 16 13 9.7 12.9 0.00 0.00 0.00 42 1014.1
20260502213018 16 121 1.6 1.6 0.00 0.00 0.00 43 1014.4
20260502212516 16 307 6.4 6.4 0.00 0.00 0.00 43 1014.3
20260502212013 16 24 6.4 6.4 0.00 0.00 0.00 42 1014.3
20260502211509 16 24 4.8 4.8 0.00 0.00 0.00 42 1014.3
20260502211006 15 13 6.4 9.7 0.00 0.00 0.00 44 1014.4
20260502210503 15 97 1.6 1.6 0.00 0.00 0.00 43 1014.4
20260502210000 16 7 4.8 6.4 0.00 0.00 0.00 43 1014.4
20260502205456 16 278 3.2 4.8 0.00 0.00 0.00 44 1014.5
20260502204954 16 354 6.4 6.4 0.00 0.00 0.00 42 1014.5
20260502204450 16 350 3.2 3.2 0.00 0.00 0.00 42 1014.3
20260502203948 16 34 3.2 3.2 0.00 0.00 0.00 42 1014.5
20260502203445 16 254 12.9 14.5 0.00 0.00 0.00 42 1014.6
20260502202941 15 328 8.0 11.3 0.00 0.00 0.00 43 1014.9
20260502202438 15 319 3.2 3.2 0.00 0.00 0.00 43 1014.6
20260502201936 16 247 8.0 9.7 0.00 0.00 0.00 41 1014.7
20260502201432 15 186 3.2 3.2 0.00 0.00 0.00 43 1014.7
20260502200929 15 199 3.2 4.8 0.00 0.00 0.00 44 1015.1
20260502200425 15 7 8.0 11.3 0.00 0.00 0.00 42 1014.9
20260502195923 -17 0.0 0.0 0.00 0.00 0.00 1014.9
20260502195419 16 8 6.4 6.4 0.00 0.00 0.00 43 1014.9
20260502194916 16 8 6.4 6.4 0.00 0.00 0.00 43 1015.2
20260502194413 15 158 0.0 1.6 0.00 0.00 0.00 44 1015.2
20260502193909 15 238 3.2 3.2 0.00 0.00 0.00 45 1015.2
20260502193406 15 52 0.0 0.0 0.00 0.00 0.00 44 1015.3
20260502192901 15 25 4.8 4.8 0.00 0.00 0.00 44 1015.3
20260502192359 16 66 6.4 6.4 0.00 0.00 0.00 43 1015.3
20260502191855 15 29 4.8 6.4 0.00 0.00 0.00 45 1015.5
20260502191354 16 14 9.7 12.9 0.00 0.00 0.00 44 1015.4
20260502190851 15 26 11.3 12.9 0.00 0.00 0.00 45 1015.5
20260502190348 15 57 11.3 12.9 0.00 0.00 0.00 46 1015.4
20260502185844 15 14 12.9 16.1 0.00 0.00 0.00 47 1015.8
20260502185339 14 345 16.1 17.7 0.00 0.00 0.00 47 1015.6
20260502184837 14 3 9.7 9.7 0.00 0.00 0.00 48 1015.7
20260502184332 14 356 16.1 22.5 0.00 0.00 0.00 47 1016.0
20260502183829 14 6 16.1 17.7 0.00 0.00 0.00 47 1015.6
20260502183325 15 10 14.5 16.1 0.00 0.00 0.00 48 1015.8
20260502182820 15 17 11.3 12.9 0.00 0.00 0.00 47 1015.8
20260502182316 14 36 12.9 14.5 0.00 0.00 0.00 48 1015.8
20260502181813 15 9 12.9 16.1 0.00 0.00 0.00 46 1015.8
20260502181312 15 33 11.3 12.9 0.00 0.00 0.00 47 1015.6
20260502180809 15 335 9.7 11.3 0.00 0.00 0.00 46 1015.7
20260502180306 14 352 11.3 12.9 0.00 0.00 0.00 47 1015.7
20260502170225 13 13 14.5 16.1 0.00 0.00 0.00 50 1016.0
20260502164207 15 10 14.5 16.1 0.00 0.00 0.00 49 1015.8
20260502163702 15 32 14.5 16.1 0.00 0.00 0.00 48 1015.8
20260502163159 14 353 12.9 14.5 0.00 0.00 0.00 50 1016.1
20260502162655 14 345 19.3 24.1 0.00 0.00 0.00 49 1016.0
20260502162152 13 352 17.7 17.7 0.00 0.00 0.00 50 1015.7
20260502161650 13 13 12.9 16.1 0.00 0.00 0.00 52 1016.0
20260502161146 13 8 17.7 22.5 0.00 0.00 0.00 52 1015.8
20260502160644 13 357 19.3 22.5 0.00 0.00 0.00 51 1015.6
20260502160143 13 1 19.3 24.1 0.00 0.00 0.00 51 1015.7
20260502152057 12 13 20.9 25.7 0.00 0.00 0.00 53 1015.4
20260502151554 12 15 14.5 17.7 0.00 0.00 0.00 54 1015.7
20260502151051 11 9 17.7 20.9 0.00 0.00 0.00 55 1015.4
20260502150549 11 27 19.3 22.5 0.00 0.00 0.00 55 1015.5
20260502130433 11 37 16.1 20.9 0.00 0.00 0.00 51 1014.6
20260502123416 10 34 9.7 12.9 0.00 0.00 0.00 52 1014.4
20260502122913 10 16 12.9 14.5 0.00 0.00 0.00 50 1014.6
20260502122409 10 28 16.1 20.9 0.00 0.00 0.00 50 1014.4
20260502121908 10 28 19.3 22.5 0.00 0.00 0.00 51 1014.3
20260502121404 10 24 16.1 17.7 0.00 0.00 0.00 51 1014.3
20260502120902 10 21 19.3 20.9 0.00 0.00 0.00 51 1014.5
20260502120358 10 36 16.1 20.9 0.00 0.00 0.00 51 1014.2
20260502115855 10 35 14.5 16.1 0.00 0.00 0.00 51 1014.3
20260502115353 9 25 16.1 20.9 0.00 0.00 0.00 52 1014.2
20260502114848 10 3 12.9 16.1 0.00 0.00 0.00 52 1014.3
20260502114346 10 34 11.3 12.9 0.00 0.00 0.00 51 1014.2
20260502113843 10 46 12.9 14.5 0.00 0.00 0.00 49 1014.2
20260502113340 11 71 19.3 24.1 0.00 0.00 0.00 48 1013.9
20260502112838 11 55 20.9 30.6 0.00 0.00 0.00 48 1013.7
20260502112335 10 60 19.3 25.7 0.00 0.00 0.00 48 1013.6
20260502111833 11 62 17.7 20.9 0.00 0.00 0.00 47 1013.5
20260502111331 11 71 20.9 25.7 0.00 0.00 0.00 48 1013.7
20260502110828 11 59 19.3 25.7 0.00 0.00 0.00 48 1013.6
20260502110326 11 55 25.7 29.0 0.00 0.00 0.00 49 1013.4
20260502105823 11 55 25.7 30.6 0.00 0.00 0.00 49 1013.4
20260502105319 11 54 22.5 27.4 0.00 0.00 0.00 50 1013.3
20260502104817 11 44 25.7 30.6 0.00 0.00 0.00 49 1012.9
20260502104314 11 72 24.1 30.6 0.00 0.00 0.00 48 1013.0
20260502103812 11 61 24.1 27.4 0.00 0.00 0.00 48 1012.8
20260502103309 11 60 14.5 17.7 0.00 0.00 0.00 48 1012.8
20260502102806 11 54 20.9 24.1 0.00 0.00 0.00 48 1012.9
20260502102305 11 86 17.7 24.1 0.00 0.00 0.00 48 1012.7
20260502101800 11 52 20.9 24.1 0.00 0.00 0.00 47 1012.7
20260502101258 11 52 12.9 14.5 0.00 0.00 0.00 47 1012.5
20260502100756 11 71 17.7 22.5 0.00 0.00 0.00 47 1012.6
20260502100255 11 78 14.5 17.7 0.00 0.00 0.00 46 1012.6
20260502091229 10 18 17.7 22.5 0.00 0.00 0.00 46 1011.8
20260502090726 11 0 17.7 20.9 0.00 0.00 0.00 46 1011.6
20260502090223 11 18 16.1 17.7 0.00 0.00 0.00 45 1011.7
20260502071119 12 356 6.4 6.4 0.00 0.00 0.00 40 1011.8
20260502070617 12 356 12.9 14.5 0.00 0.00 0.00 38 1011.8
20260502070114 12 145 0.0 1.6 0.00 0.00 0.00 40 1011.9
20260502065612 12 280 3.2 3.2 0.00 0.00 0.00 39 1011.7
20260502065110 13 41 4.8 6.4 0.00 0.00 0.00 37 1011.7
20260502064608 13 5 12.9 16.1 0.00 0.00 0.00 37 1011.7
20260502064105 13 20 9.7 11.3 0.00 0.00 0.00 36 1011.8
20260502063603 14 5 14.5 20.9 0.00 0.00 0.00 35 1011.6
20260502063100 14 9 12.9 14.5 0.00 0.00 0.00 35 1011.6
20260502062557 14 15 9.7 12.9 0.00 0.00 0.00 35 1011.7
20260502062055 14 9 12.9 12.9 0.00 0.00 0.00 36 1011.5
20260502061553 13 10 9.7 12.9 0.00 0.00 0.00 37 1011.5
20260502061050 13 16 11.3 12.9 0.00 0.00 0.00 37 1011.7
20260502060545 13 18 12.9 14.5 0.00 0.00 0.00 38 1011.4
20260502060042 13 6 12.9 14.5 0.00 0.00 0.00 38 1011.7
20260502055539 13 13 14.5 16.1 0.00 0.00 0.00 38 1011.6
20260502055038 13 21 12.9 16.1 0.00 0.00 0.00 38 1011.7
20260502054536 13 13 12.9 14.5 0.00 0.00 0.00 37 1011.6
20260502054033 13 18 12.9 14.5 0.00 0.00 0.00 38 1011.5
20260502053530 12 24 9.7 12.9 0.00 0.00 0.00 38 1011.5
20260502053028 12 6 4.8 6.4 0.00 0.00 0.00 39 1011.5
20260502052526 11 330 6.4 6.4 0.00 0.00 0.00 40 1011.7
20260502052024 12 327 4.8 4.8 0.00 0.00 0.00 40 1011.8
20260502051521 11 345 6.4 9.7 0.00 0.00 0.00 40 1011.6
20260502051019 10 322 3.2 3.2 0.00 0.00 0.00 42 1011.6
20260502050515 10 0 3.2 4.8 0.00 0.00 0.00 42 1011.8
20260502050012 11 333 3.2 3.2 0.00 0.00 0.00 41 1011.8
20260502045509 11 320 3.2 4.8 0.00 0.00 0.00 40 1011.6
20260502045006 12 2 3.2 3.2 0.00 0.00 0.00 39 1011.6
20260502044502 13 36 3.2 3.2 0.00 0.00 0.00 36 1011.9
20260502043959 12 277 4.8 6.4 0.00 0.00 0.00 36 1011.6
20260502043457 13 352 4.8 6.4 0.00 0.00 0.00 37 1011.7
20260502042955 14 14 6.4 9.7 0.00 0.00 0.00 34 1011.6
20260502042453 13 344 3.2 3.2 0.00 0.00 0.00 36 1011.8
20260502041950 13 329 6.4 6.4 0.00 0.00 0.00 35 1011.5
20260502041448 12 351 3.2 3.2 0.00 0.00 0.00 37 1011.7
20260502040944 12 314 4.8 4.8 0.00 0.00 0.00 38 1011.7
20260502040441 11 315 4.8 4.8 0.00 0.00 0.00 38 1011.7
20260502035937 11 358 4.8 4.8 0.00 0.00 0.00 38 1011.5
20260502035434 12 350 3.2 3.2 0.00 0.00 0.00 35 1011.5
20260502034932 12 308 3.2 3.2 0.00 0.00 0.00 35 1011.6
20260502034430 11 272 3.2 3.2 0.00 0.00 0.00 37 1011.5
20260502033928 11 310 3.2 3.2 0.00 0.00 0.00 38 1011.5
20260502033425 12 345 4.8 4.8 0.00 0.00 0.00 36 1011.4